02:13 Rennrad Moetz - Zirl - Haiming - Apfelstrasse - Moetz
Ort Moetz Datum 11.06.2016 14:58:05
Kategorie Rennrad
Distanz 63,10 Kilometer Steigung 120,0 Meter Gefälle -127,0 Meter
Gesamt Zeit 02:14:19 Aktiv 02:13:28 Pause 00:00:51
Durchs. Tempo 28,4 km/h Tempo max. 37,2 km/h Tempo min. 16,5 km/h
Kalorien 0 Durchs. HF 109 BPM HF max. 135 BPM
Wetter 18 °C LightRain Min/Max: 16,6 °C/19,5 °C; Druck: 1011,4 mbar; Rel. Feuchte: 73,0%; Taupunkt: 13,4 °C; Windgeschwindigkeit: 8,5 km/h; Niederschlag: 0,1mm
Ausrüstung Bontrager - RXL Road
Continental - Grand Prix 4000 S II 25-622
Poison - Rennrad
Shimano - HG CN-7901 Dura Ace
Notiz Moetz - Zirl - Haiming - Apfelstrasse - Moetz ... bis Zirl trocken mit Gegenwind, retour bis Sagl Rückenwind, ab dann Regen und wieder starker Gegenwind ... garmin connect
Splits
Distanz (km) Gesamt Zeit Split Zeit Split Tempo Split Tempo Höhenprofil (m)
1,00 00:02:20 00:02:20 00:02:21 25,6 -8,97
2,00 00:04:35 00:02:14 00:02:15 26,7 -0,07
3,00 00:06:45 00:02:10 00:02:10 27,6 -0,73
4,00 00:08:57 00:02:12 00:02:12 27,3 -3,89
5,00 00:11:08 00:02:10 00:02:11 27,5 1,26
6,00 00:13:20 00:02:11 00:02:12 27,3 -0,80
7,00 00:15:41 00:02:20 00:02:21 25,6 -0,91
8,00 00:17:53 00:02:11 00:02:12 27,3 -7,89
9,00 00:20:08 00:02:15 00:02:16 26,6 -2,80
10,00 00:22:26 00:02:17 00:02:18 26,2 1,11
11,00 00:24:39 00:02:13 00:02:13 27,0 0,35
12,00 00:26:54 00:02:14 00:02:15 26,7 -6,64
13,00 00:28:57 00:02:03 00:02:03 29,2 0,12
14,00 00:31:02 00:02:04 00:02:05 28,9 0,06
15,00 00:33:07 00:02:05 00:02:05 28,8 -4,81
16,00 00:35:16 00:02:09 00:02:10 27,8 3,70
17,00 00:37:29 00:02:12 00:02:12 27,2 -8,14
18,00 00:39:41 00:02:12 00:02:12 27,2 0,00
19,00 00:41:53 00:02:12 00:02:12 27,2 -0,46
20,00 00:44:06 00:02:12 00:02:12 27,2 -0,97
21,00 00:46:18 00:02:12 00:02:13 27,1 -3,86
22,00 00:48:25 00:02:06 00:02:07 28,4 -3,44
23,00 00:50:39 00:02:14 00:02:14 26,8 11,73
24,00 00:52:47 00:02:08 00:02:08 28,1 -1,47
25,00 00:54:46 00:01:58 00:01:59 30,3 2,92
26,00 00:56:37 00:01:51 00:01:51 32,3 -14,30
27,00 00:58:33 00:01:55 00:01:56 31,1 5,94
28,00 01:00:25 00:01:51 00:01:52 32,1 2,82
29,00 01:02:10 00:01:45 00:01:45 34,2 0,46
30,00 01:03:58 00:01:47 00:01:48 33,4 0,62
31,00 01:05:43 00:01:44 00:01:45 34,4 0,02
32,00 01:07:31 00:01:48 00:01:48 33,2 7,90
33,00 01:09:22 00:01:51 00:01:51 32,4 -3,71
34,00 01:11:18 00:01:56 00:01:56 31,0 5,79
35,00 01:13:17 00:01:58 00:01:58 30,4 -1,04
36,00 01:15:15 00:01:58 00:01:58 30,4 0,45
37,00 01:17:15 00:01:59 00:02:00 30,1 6,68
38,00 01:19:23 00:02:07 00:02:08 28,2 -1,33
39,00 01:21:22 00:01:59 00:02:00 30,0 -0,21
40,00 01:23:26 00:02:03 00:02:03 29,2 2,82
41,00 01:25:37 00:02:10 00:02:11 27,5 7,24
42,00 01:27:42 00:02:05 00:02:06 28,7 0,91
43,00 01:29:52 00:02:09 00:02:10 27,8 -0,16
44,00 01:32:10 00:02:18 00:02:18 26,1 0,24
45,00 01:34:26 00:02:16 00:02:16 26,5 4,22
46,00 01:36:38 00:02:11 00:02:12 27,3 0,19
47,00 01:38:47 00:02:08 00:02:09 27,9 0,00
48,00 01:40:52 00:02:05 00:02:05 28,8 4,80
49,00 01:43:02 00:02:09 00:02:10 27,7 7,82
50,00 01:45:25 00:02:22 00:02:23 25,2 8,32
51,00 01:47:40 00:02:15 00:02:15 26,7 5,97
52,00 01:49:57 00:02:17 00:02:17 26,3 3,74
53,00 01:52:15 00:02:18 00:02:18 26,1 2,48
54,00 01:54:29 00:02:14 00:02:14 26,8 4,99
55,00 01:56:29 00:01:59 00:02:00 30,0 -10,81
56,00 01:58:58 00:02:28 00:02:29 24,2 -6,88
57,00 02:01:07 00:02:09 00:02:09 27,9 -0,55
58,00 02:02:58 00:01:50 00:01:50 32,6 -3,56
59,00 02:04:47 00:01:49 00:01:49 32,9 1,65
60,00 02:06:44 00:01:56 00:01:57 30,9 -2,45
61,00 02:08:38 00:01:54 00:01:54 31,6 -3,65
62,00 02:10:34 00:01:56 00:01:56 30,9 -3,83
63,00 02:12:49 00:02:14 00:02:15 26,7 2,24
63,09 02:13:10 00:00:20 00:03:38 16,5 -0,44